Regional Weather Roundup
Issued by NWS Midland/Odessa, TX

Skip options and go directly to product.
Home | Oldest Version | Next Version | Current Version | All | Text Only | Save Text | Print | Product List | Glossary On

Skip product version selection by date and time.   
016
ASUS44 KMAF 231202
RWRMAF
MIDLAND AREA WEATHER ROUNDUP
NATIONAL WEATHER SERVICE MIDLAND TX
600 AM CST SUN NOV 23 2014

...IN SOUTHWEST TEXAS AND SOUTHEAST NEW MEXICO...

CITY           SKY/WX    TMP DP  RH WIND       PRES   REMARKS
ALPINE         CLEAR     50  30  46 SW14G20   29.89S
ANDREWS        FAIR      49  26  41 W13G18    29.65R
ARTESIA        NOT AVBL
BIG SPRING     CLEAR     47  36  64 SW8       29.65R
CARLSBAD       CLEAR     59  16  18 W22G29    29.67S
DRYDEN           N/A     57  38  48 W10       29.70S
FORT STOCKTON  CLEAR     55  31  39 SW22      29.70S
GUAD PASS      NOT AVBL
HOBBS          CLEAR     46  21  36 W13       29.68S
MARFA          CLEAR     43  30  61 CALM      29.87F
MIDLAND AIRPK  CLEAR     52  31  44 SW10      29.64S
MIDLAND INTL   CLEAR     53  28  38 W15       29.65R
ODESSA         PTCLDY    53  24  32 W17       29.67R
PECOS          CLEAR     59  28  30 SW22G28   29.69S
PRESIDIO       FAIR      47  37  65 E5        29.85F
SEMINOLE       CLEAR     50  23  35 W14G20    29.65S
SNYDER         PTCLDY    44  40  88 SW7       29.60S WCI  39
WINK           CLEAR     58  23  26 W20       29.66S
$$
...OTHER STATIONS IN TEXAS...

CITY           SKY/WX    TMP DP  RH WIND       PRES   REMARKS
ABILENE        CLEAR     50  47  89 SW9       29.61R
AMARILLO       CLEAR     53  23  31 W20       29.48S
AUSTIN         CLEAR     52  52 100 SW5       29.65F
BROWNSVILLE    FOG       59  59 100 W3        29.77S VSB 1/4
CORPUS CHRISTI FOG       58  58 100 SW10      29.74R VSB 1/8
DALLAS FTW     PTCLDY    52  52 100 S7        29.59S FOG
DEL RIO        PTCLDY    48  47  96 E3        29.70S
EL PASO        PTCLDY    53  21  28 S13G25    29.86S
HOUSTON INT    CLOUDY    62  60  93 S8        29.66R
LUBBOCK        PTCLDY    52  24  33 W16       29.56S
SAN ANGELO     CLEAR     48  41  76 SW13      29.64S
SAN ANTONIO    PTCLDY    54  51  90 CALM      29.71S
WACO           FOG       50  50 100 S5        29.62S VSB 3/4
WICHITA FALLS  NOT AVBL
$$
...OTHER LOCATIONS IN NEW MEXICO...

CITY           SKY/WX    TMP DP  RH WIND       PRES   REMARKS
ALAMAGORDO     CLEAR     43  18  36 MISG      29.81S
ALBUQUERQUE    PTCLDY    45  20  36 W20G28    29.78F WCI  37
CANNON AFB     CLEAR     50  19  29 SW14      29.70F
CLOVIS         CLEAR     48  19  32 W16G25    29.62R
HOLLOMAN AFB   CLEAR     44  19  35 SE10      29.80S WCI  39
ROSWELL        CLEAR     37  24  59 CALM      29.69R
RUIDOSO        CLEAR     41  14  33 W9        29.80F WCI  35
SANTA FE       PTCLDY    35  17  47 CALM      29.74F
TRUTH OR CONSE CLEAR     42  18  37 SE3       29.83S
TUCUMCARI        N/A     48  20  32 W21       29.58F
$$

USA.gov is the U.S. government's official web portal to all federal, state and local government web resources and services.